Terminal Aerodrome Forecast
Issued by NWS Miami, FL

Home | Current Version | Previous Version | Text Only | Print | Product List | Glossary On
Versions: 1 2 3 4 5 6 7 8 9 10 11 12 13 14 15 16 17 18 19 20 21 22 23 24 25 26 27 28 29 30 31 32 33 34 35 36 37 38 39 40 41 42 43 44 45 46 47
000
FTUS42 KMFL 021512 AAA
TAFFLL
TAF AMD
KFLL 021512Z 0215/0312 10010G15KT P6SM VCSH SCT030 SCT070
      TEMPO 0215/0217 VRB10G20KT 5SM SHRA BKN030 BKN060
     FM022300 10007KT P6SM SCT030 SCT250=

USA.gov is the U.S. government's official web portal to all federal, state and local government web resources and services.